Total_Precipitation_Accumulation
0.02 0.02 0.02 0.02 0.02 0.01 0.00 0.00 0.00 0.00 0.00 0.00 0.00 0.00 0.00 0.00 0.00 0.00 0.00 0.01 0.02 0.02 0.04 0.09 0.15 0.19 0.22 0.22 0.20 0.16 0.14 0.12 0.12 0.11 0.13 0.15 0.17 0.20 0.22 0.25 0.26 0.30 0.33 0.32 0.32 0.41 0.43 0.40 0.39
0.02 0.03 0.03 0.03 0.01 0.00 0.00 0.00 0.00 0.00 0.00 0.00 0.00 0.00 0.00 0.00 0.00 0.00 0.00 0.00 0.01 0.01 0.02 0.04 0.12 0.17 0.20 0.21 0.19 0.15 0.14 0.12 0.11 0.11 0.11 0.14 0.16 0.17 0.21 0.25 0.28 0.31 0.40 0.43 0.45 0.52 0.49 0.44 0.39
0.03 0.04 0.05 0.03 0.01 0.00 0.00 0.00 0.00 0.00 0.00 0.00 0.00 0.00 0.00 0.00 0.00 0.00 0.00 0.00 0.00 0.00 0.01 0.04 0.10 0.16 0.19 0.19 0.20 0.18 0.15 0.12 0.12 0.12 0.12 0.13 0.14 0.16 0.18 0.21 0.26 0.32 0.43 0.44 0.42 0.46 0.45 0.41 0.38
0.07 0.07 0.06 0.04 0.01 0.00 0.00 0.00 0.00 0.00 0.00 0.00 0.00 0.00 0.00 0.00 0.00 0.00 0.00 0.00 0.00 0.00 0.01 0.03 0.10 0.16 0.18 0.20 0.23 0.23 0.17 0.13 0.13 0.13 0.13 0.14 0.14 0.13 0.15 0.16 0.18 0.22 0.29 0.31 0.35 0.39 0.40 0.38 0.35
0.09 0.09 0.07 0.04 0.01 0.00 0.00 0.00 0.00 0.00 0.00 0.00 0.00 0.00 0.00 0.00 0.00 0.00 0.00 0.00 0.00 0.00 0.01 0.03 0.10 0.16 0.18 0.19 0.23 0.24 0.18 0.14 0.13 0.14 0.16 0.15 0.14 0.13 0.13 0.12 0.12 0.12 0.16 0.20 0.28 0.37 0.42 0.41 0.35
0.09 0.09 0.08 0.05 0.02 0.00 0.00 0.00 0.00 0.00 0.00 0.00 0.00 0.00 0.00 0.00 0.00 0.00 0.00 0.00 0.00 0.00 0.01 0.03 0.11 0.17 0.18 0.18 0.21 0.27 0.22 0.17 0.15 0.17 0.18 0.18 0.17 0.17 0.18 0.15 0.12 0.11 0.11 0.14 0.20 0.31 0.48 0.48 0.36
0.10 0.08 0.05 0.04 0.03 0.01 0.00 0.00 0.00 0.00 0.00 0.00 0.00 0.00 0.00 0.00 0.00 0.00 0.00 0.00 0.00 0.00 0.01 0.03 0.09 0.13 0.16 0.18 0.21 0.26 0.23 0.20 0.18 0.19 0.20 0.19 0.18 0.18 0.20 0.19 0.16 0.16 0.14 0.14 0.15 0.24 0.44 0.46 0.39
0.09 0.11 0.06 0.03 0.03 0.02 0.01 0.00 0.00 0.00 0.00 0.00 0.00 0.00 0.00 0.00 0.00 0.00 0.00 0.00 0.00 0.01 0.01 0.04 0.08 0.10 0.13 0.14 0.19 0.23 0.22 0.22 0.21 0.20 0.18 0.15 0.15 0.17 0.17 0.14 0.12 0.14 0.16 0.15 0.14 0.16 0.29 0.36 0.36
0.14 0.14 0.08 0.03 0.02 0.01 0.01 0.01 0.00 0.00 0.00 0.00 0.00 0.00 0.00 0.00 0.00 0.00 0.01 0.01 0.01 0.02 0.02 0.04 0.09 0.11 0.12 0.13 0.14 0.19 0.19 0.18 0.18 0.17 0.15 0.15 0.13 0.13 0.12 0.10 0.09 0.11 0.14 0.15 0.18 0.18 0.22 0.27 0.26
0.18 0.14 0.06 0.03 0.02 0.01 0.01 0.02 0.01 0.00 0.00 0.00 0.00 0.00 0.00 0.00 0.00 0.01 0.01 0.01 0.01 0.02 0.03 0.05 0.08 0.11 0.11 0.10 0.11 0.15 0.15 0.14 0.13 0.12 0.13 0.14 0.16 0.15 0.13 0.11 0.11 0.13 0.12 0.14 0.19 0.22 0.21 0.21 0.19
0.19 0.12 0.04 0.02 0.02 0.03 0.02 0.02 0.02 0.01 0.01 0.00 0.00 0.00 0.01 0.01 0.01 0.01 0.01 0.01 0.01 0.01 0.02 0.05 0.08 0.10 0.10 0.10 0.10 0.12 0.13 0.15 0.15 0.15 0.16 0.20 0.22 0.21 0.18 0.15 0.14 0.13 0.12 0.13 0.17 0.21 0.20 0.25 0.39
0.19 0.10 0.04 0.02 0.03 0.04 0.04 0.03 0.02 0.02 0.01 0.01 0.01 0.01 0.01 0.01 0.01 0.01 0.01 0.01 0.01 0.02 0.03 0.05 0.08 0.09 0.09 0.09 0.10 0.10 0.11 0.11 0.12 0.14 0.14 0.16 0.18 0.17 0.15 0.12 0.11 0.11 0.12 0.12 0.15 0.17 0.21 0.24 0.31
0.18 0.13 0.07 0.04 0.04 0.05 0.05 0.04 0.03 0.02 0.01 0.01 0.01 0.01 0.01 0.01 0.01 0.01 0.01 0.02 0.02 0.02 0.03 0.05 0.07 0.09 0.10 0.11 0.11 0.09 0.09 0.09 0.08 0.09 0.09 0.09 0.10 0.11 0.11 0.09 0.08 0.07 0.07 0.07 0.09 0.10 0.12 0.16 0.20
0.19 0.14 0.11 0.08 0.06 0.06 0.06 0.05 0.03 0.02 0.01 0.01 0.01 0.01 0.01 0.01 0.01 0.01 0.02 0.02 0.02 0.03 0.03 0.04 0.05 0.07 0.10 0.10 0.12 0.10 0.09 0.10 0.10 0.10 0.09 0.08 0.07 0.06 0.06 0.06 0.05 0.05 0.04 0.04 0.06 0.06 0.07 0.10 0.14
0.19 0.17 0.13 0.10 0.09 0.08 0.08 0.06 0.03 0.01 0.01 0.02 0.02 0.01 0.01 0.01 0.01 0.01 0.01 0.02 0.02 0.03 0.03 0.03 0.05 0.07 0.09 0.10 0.11 0.11 0.10 0.10 0.11 0.11 0.10 0.08 0.08 0.07 0.05 0.04 0.04 0.04 0.04 0.06 0.11 0.14 0.15 0.15 0.17
0.22 0.23 0.17 0.09 0.08 0.09 0.13 0.09 0.02 0.01 0.01 0.02 0.02 0.02 0.01 0.01 0.01 0.01 0.01 0.03 0.02 0.03 0.04 0.04 0.04 0.06 0.08 0.11 0.12 0.13 0.12 0.11 0.11 0.11 0.11 0.10 0.10 0.10 0.09 0.06 0.04 0.03 0.04 0.06 0.12 0.17 0.20 0.20 0.22
0.27 0.24 0.16 0.09 0.06 0.08 0.13 0.09 0.02 0.01 0.02 0.02 0.01 0.01 0.01 0.01 0.01 0.01 0.01 0.02 0.03 0.03 0.04 0.04 0.04 0.05 0.06 0.10 0.14 0.13 0.14 0.13 0.11 0.11 0.12 0.12 0.13 0.13 0.12 0.11 0.08 0.05 0.05 0.07 0.11 0.14 0.18 0.21 0.24
0.21 0.16 0.11 0.09 0.07 0.07 0.09 0.06 0.02 0.02 0.02 0.02 0.01 0.01 0.01 0.01 0.00 0.00 0.01 0.01 0.03 0.04 0.05 0.04 0.05 0.06 0.06 0.09 0.15 0.16 0.15 0.14 0.11 0.10 0.10 0.12 0.13 0.13 0.12 0.11 0.11 0.10 0.10 0.11 0.13 0.15 0.17 0.20 0.26
0.12 0.12 0.10 0.08 0.07 0.08 0.07 0.04 0.02 0.02 0.03 0.03 0.01 0.01 0.01 0.00 0.00 0.00 0.00 0.00 0.01 0.04 0.06 0.06 0.05 0.06 0.07 0.09 0.13 0.16 0.13 0.12 0.12 0.09 0.08 0.09 0.10 0.10 0.10 0.10 0.10 0.10 0.10 0.12 0.14 0.15 0.15 0.15 0.19
0.14 0.13 0.11 0.08 0.06 0.09 0.08 0.04 0.02 0.02 0.03 0.02 0.02 0.01 0.01 0.00 0.00 0.00 0.01 0.01 0.01 0.02 0.05 0.07 0.06 0.05 0.06 0.07 0.09 0.12 0.11 0.10 0.11 0.10 0.08 0.08 0.08 0.09 0.09 0.09 0.10 0.10 0.08 0.07 0.07 0.08 0.11 0.10 0.10
0.19 0.15 0.11 0.10 0.08 0.09 0.09 0.06 0.02 0.01 0.02 0.01 0.01 0.01 0.01 0.01 0.00 0.00 0.01 0.01 0.01 0.01 0.03 0.06 0.06 0.05 0.05 0.06 0.09 0.13 0.15 0.13 0.12 0.12 0.10 0.08 0.08 0.08 0.07 0.08 0.09 0.10 0.09 0.08 0.07 0.07 0.09 0.10 0.08
0.16 0.10 0.09 0.11 0.17 0.19 0.14 0.12 0.03 0.01 0.02 0.02 0.01 0.01 0.00 0.00 0.00 0.01 0.01 0.01 0.01 0.01 0.02 0.05 0.07 0.07 0.06 0.07 0.09 0.11 0.14 0.12 0.10 0.09 0.09 0.08 0.07 0.07 0.07 0.07 0.09 0.10 0.10 0.09 0.08 0.07 0.09 0.11 0.11
0.12 0.09 0.11 0.13 0.20 0.23 0.16 0.16 0.05 0.01 0.02 0.01 0.01 0.00 0.00 0.00 0.01 0.01 0.01 0.01 0.01 0.01 0.01 0.02 0.07 0.08 0.07 0.07 0.08 0.10 0.12 0.11 0.10 0.09 0.09 0.09 0.08 0.06 0.07 0.07 0.09 0.10 0.10 0.09 0.09 0.09 0.10 0.11 0.14
0.13 0.17 0.22 0.23 0.33 0.39 0.14 0.11 0.05 0.03 0.02 0.01 0.01 0.00 0.00 0.01 0.01 0.02 0.02 0.02 0.01 0.01 0.01 0.02 0.05 0.08 0.08 0.09 0.09 0.10 0.11 0.11 0.12 0.11 0.09 0.08 0.09 0.07 0.06 0.07 0.08 0.09 0.10 0.11 0.11 0.12 0.12 0.12 0.14
0.23 0.38 0.58 0.57 0.54 0.31 0.05 0.06 0.05 0.02 0.02 0.01 0.01 0.00 0.00 0.01 0.01 0.01 0.02 0.03 0.03 0.02 0.02 0.02 0.04 0.07 0.09 0.10 0.11 0.10 0.11 0.11 0.11 0.12 0.10 0.07 0.07 0.08 0.08 0.08 0.08 0.10 0.11 0.12 0.13 0.14 0.16 0.16 0.17
0.19 0.30 0.49 0.48 0.28 0.09 0.03 0.04 0.03 0.02 0.01 0.01 0.00 0.00 0.01 0.01 0.01 0.00 0.00 0.01 0.01 0.02 0.02 0.02 0.03 0.05 0.08 0.10 0.11 0.11 0.11 0.11 0.10 0.11 0.12 0.08 0.07 0.07 0.08 0.09 0.10 0.12 0.14 0.16 0.17 0.18 0.19 0.21 0.22
0.22 0.23 0.22 0.35 0.27 0.17 0.09 0.05 0.03 0.01 0.00 0.00 0.00 0.01 0.01 0.01 0.01 0.00 0.00 0.00 0.01 0.02 0.02 0.03 0.03 0.04 0.06 0.09 0.13 0.13 0.12 0.12 0.10 0.09 0.11 0.10 0.08 0.08 0.10 0.12 0.15 0.17 0.20 0.21 0.23 0.24 0.24 0.26 0.28
0.16 0.24 0.34 0.50 0.47 0.26 0.10 0.06 0.04 0.01 0.01 0.00 0.01 0.01 0.02 0.02 0.01 0.01 0.01 0.01 0.01 0.01 0.02 0.03 0.04 0.05 0.06 0.07 0.11 0.15 0.14 0.14 0.13 0.11 0.12 0.12 0.11 0.13 0.13 0.15 0.16 0.20 0.24 0.27 0.30 0.31 0.33 0.35 0.38
0.15 0.24 0.40 0.50 0.40 0.27 0.15 0.07 0.06 0.03 0.02 0.01 0.01 0.02 0.03 0.03 0.03 0.02 0.01 0.01 0.02 0.02 0.02 0.02 0.04 0.06 0.08 0.08 0.09 0.13 0.19 0.19 0.18 0.18 0.18 0.16 0.16 0.17 0.18 0.18 0.18 0.19 0.21 0.27 0.33 0.35 0.40 0.44 0.44
0.18 0.20 0.28 0.44 0.38 0.23 0.18 0.08 0.04 0.03 0.02 0.01 0.01 0.01 0.02 0.03 0.04 0.03 0.03 0.03 0.03 0.03 0.03 0.04 0.05 0.07 0.09 0.09 0.10 0.12 0.17 0.23 0.26 0.28 0.27 0.26 0.24 0.22 0.22 0.23 0.24 0.22 0.21 0.26 0.30 0.33 0.36 0.42 0.47